Weather History for KGSO - July, 2012

Change the Weather History Date:

Tuesday, July 3, 2012

  Actual Average Record
Temperature  
Mean Temperature 85 °F 78 °F  
Max Temperature 95 °F 88 °F 98 °F (1911)
Min Temperature 74 °F 69 °F 52 °F (1932)
Degree Days  
Heating Degree Days 0 0  
Month to date heating degree days 0 0  
Since 1 June heating degree days 4 6  
Since 1 July heating degree days 0 0  
Cooling Degree Days 20 13  
Month to date cooling degree days 58 39  
Year to date cooling degree days 603 505  
Since 1 June cooling degree days 341 346  
Growing Degree Days 34 (Base 50)    
Moisture  
Dew Point 66 °F    
Average Humidity 58    
Maximum Humidity 79    
Minimum Humidity 36    
Precipitation  
Precipitation 0.00 in 0.13 in 1.55 in (1987)
Month to date precipitation 0.22 0.37  
Year to date precipitation 15.91 20.80  
Sea Level Pressure  
Sea Level Pressure 29.96 in    
Wind  
Wind Speed 3 mph (West)    
Max Wind Speed 18 mph    
Max Gust Speed 23 mph    
Visibility 10 miles    
Events      
T = Trace of Precipitation, MM = Missing Value Source: NWS Daily Summary

Daily Weather History Graph

Daily Weather History Graph

Search for Another Location

Airport or City:

Trip Planner

Search our weather history database for the weather conditions in past years. The results will help you decide how hot, cold, wet, or windy it might be!

Date:

Astronomy

Jul. 03, 2012 Rise Set
Actual Time 6:07 AM EDT 8:40 PM EDT
Civil Twilight 5:37 AM EDT 9:10 PM EDT
Nautical Twilight 5:00 AM EDT 9:47 PM EDT
Astronomical Twilight 4:18 AM EDT 10:29 PM EDT
Moon 8:36 PM EDT (7/3) 5:57 AM EDT (7/3)
Length of Visible Light 15h 33m
Length of Day
14h 32m
Full, 100% of the Moon is Illuminated
Jul 3
Full
Jul 3
Full
Jul 10
Last Quarter
Jul 19
New
Jul 26
First Quarter

Hourly Weather History & Observations

Time (EDT) Temp. Heat Index Dew Point Humidity Pressure Visibility Wind Dir Wind Speed Gust Speed Precip Events Conditions
12:54 AM 77.0 °F - 66.9 °F 71% 29.99 in 10.0 mi West 5.8 mph - N/A   Clear
1:54 AM 77.0 °F - 66.9 °F 71% 29.98 in 10.0 mi Calm Calm - N/A   Clear
2:54 AM 75.9 °F - 66.9 °F 74% 29.98 in 10.0 mi Calm Calm - N/A   Clear
3:54 AM 75.0 °F - 66.9 °F 76% 29.96 in 10.0 mi Calm Calm - N/A   Clear
4:54 AM 75.9 °F - 66.9 °F 74% 29.96 in 10.0 mi WNW 3.5 mph - N/A   Clear
5:54 AM 73.9 °F - 66.0 °F 76% 29.97 in 10.0 mi Calm Calm - N/A   Clear
6:54 AM 75.9 °F - 66.0 °F 71% 29.97 in 10.0 mi Calm Calm - N/A   Clear
7:54 AM 79.0 °F - 66.9 °F 66% 29.99 in 10.0 mi Calm Calm - N/A   Clear
8:54 AM 84.0 °F 86.3 °F 66.0 °F 55% 30.00 in 10.0 mi Calm Calm - N/A   Clear
9:54 AM 87.1 °F 89.2 °F 66.0 °F 49% 30.00 in 10.0 mi ENE 3.5 mph - N/A   Clear
10:54 AM 89.1 °F 90.0 °F 63.0 °F 42% 30.00 in 10.0 mi Calm Calm - N/A   Clear
11:54 AM 91.9 °F 92.9 °F 63.0 °F 38% 29.99 in 10.0 mi Calm Calm - N/A   Partly Cloudy
12:54 PM 91.0 °F 93.0 °F 64.9 °F 42% 29.99 in 10.0 mi SSW 9.2 mph - N/A   Mostly Cloudy
1:54 PM 91.9 °F 94.1 °F 64.9 °F 41% 29.96 in 10.0 mi SW 3.5 mph - N/A   Scattered Clouds
2:54 PM 93.9 °F 95.2 °F 63.0 °F 36% 29.94 in 10.0 mi SSW 8.1 mph 17.3 mph N/A   Scattered Clouds
3:54 PM 93.9 °F 95.6 °F 64.0 °F 37% 29.94 in 10.0 mi West 12.7 mph 16.1 mph N/A   Scattered Clouds
4:54 PM 84.0 °F 85.4 °F 64.0 °F 51% 29.94 in 10.0 mi NNE 8.1 mph 16.1 mph N/A   Scattered Clouds
5:54 PM 84.9 °F 86.6 °F 64.9 °F 51% 29.91 in 10.0 mi NW 5.8 mph - N/A   Partly Cloudy
6:54 PM 84.9 °F 86.6 °F 64.9 °F 51% 29.91 in 10.0 mi Calm Calm - N/A   Partly Cloudy
7:54 PM 82.9 °F 85.0 °F 66.0 °F 56% 29.94 in 10.0 mi NNW 3.5 mph - N/A   Partly Cloudy
8:54 PM 80.1 °F 82.7 °F 68.0 °F 67% 29.94 in 10.0 mi Calm Calm - N/A   Clear
9:54 PM 80.1 °F 82.7 °F 68.0 °F 67% 29.94 in 10.0 mi Calm Calm - N/A   Clear
10:54 PM 78.1 °F - 68.0 °F 71% 29.96 in 10.0 mi SSE 4.6 mph - N/A   Clear
11:54 PM 77.0 °F - 69.1 °F 76% 29.96 in 9.0 mi West 3.5 mph - N/A   Clear